Weather History for KASW - August, 2013

Change the Weather History Date:

Wednesday, August 28, 2013

  Actual Average Record
Temperature  
Mean Temperature 80 °F -  
Max Temperature 86 °F 80 °F 96 °F (1953)
Min Temperature 71 °F 59 °F 40 °F (1986)
Cooling Degree Days 14    
Growing Degree Days 30 (Base 50)    
Moisture  
Dew Point 70 °F    
Average Humidity 74    
Maximum Humidity 94    
Minimum Humidity 58    
Precipitation  
Precipitation 0.00 in - - ()
Sea Level Pressure  
Sea Level Pressure 29.94 in    
Wind  
Wind Speed 10 mph (NW)    
Max Wind Speed 14 mph    
Max Gust Speed 18 mph    
Visibility 10 miles    
Events      
Averages and records for this station are not official NWS values.
T = Trace of Precipitation, MM = Missing Value Source: NWS Daily Summary

Daily Weather History Graph

Daily Weather History Graph

Search for Another Location

Airport or City:

Trip Planner

Search our weather history database for the weather conditions in past years. The results will help you decide how hot, cold, wet, or windy it might be!

Date:

Astronomy

Aug. 28, 2013 Rise Set
Actual Time 7:05 AM EDT 8:22 PM EDT
Civil Twilight 6:37 AM EDT 8:50 PM EDT
Nautical Twilight 6:03 AM EDT 9:24 PM EDT
Astronomical Twilight 5:26 AM EDT 10:00 PM EDT
Moon 12:11 AM EDT (8/28) 3:01 PM EDT (8/28)
Length of Visible Light 14h 13m
Length of Day
13h 16m
Waning Gibbous, 47% of the Moon is Illuminated
Aug 28
Waning Gibbous
Sep 5
New
Sep 12
First Quarter
Sep 19
Full
Sep 26
Last Quarter

Hourly Weather History & Observations

Time (EDT) Temp. Heat Index Dew Point Humidity Pressure Visibility Wind Dir Wind Speed Gust Speed Precip Events Conditions
12:15 AM 78.8 °F - 69.8 °F 74% 29.92 in 10.0 mi WSW 10.4 mph 16.1 mph N/A   Clear
12:35 AM 78.8 °F - 69.8 °F 74% 29.91 in 10.0 mi WSW 13.8 mph - N/A   Clear
12:55 AM 78.8 °F - 69.8 °F 74% 29.90 in 10.0 mi WSW 10.4 mph 18.4 mph N/A   Clear
1:15 AM 77.0 °F - 69.8 °F 78% 29.90 in 10.0 mi WSW 10.4 mph - N/A   Clear
1:35 AM 77.0 °F - 69.8 °F 78% 29.90 in 10.0 mi WSW 9.2 mph 17.3 mph N/A   Clear
1:55 AM 77.0 °F - 68.0 °F 74% 29.90 in 10.0 mi WSW 10.4 mph - N/A   Clear
2:15 AM 77.0 °F - 68.0 °F 74% 29.91 in 10.0 mi WSW 8.1 mph - N/A   Clear
2:35 AM 77.0 °F - 68.0 °F 74% 29.91 in 10.0 mi WSW 9.2 mph - N/A   Mostly Cloudy
2:55 AM 77.0 °F - 68.0 °F 74% 29.90 in 10.0 mi WSW 9.2 mph - N/A   Mostly Cloudy
3:15 AM 77.0 °F - 68.0 °F 74% 29.90 in 10.0 mi WSW 13.8 mph - N/A   Overcast
3:35 AM 77.0 °F - 68.0 °F 74% 29.90 in 10.0 mi WSW 12.7 mph - N/A   Overcast
3:55 AM 77.0 °F - 68.0 °F 74% 29.89 in 10.0 mi WSW 11.5 mph 18.4 mph N/A   Scattered Clouds
4:15 AM 77.0 °F - 68.0 °F 74% 29.90 in 10.0 mi WSW 11.5 mph 17.3 mph N/A   Clear
4:35 AM 77.0 °F - 68.0 °F 74% 29.90 in 10.0 mi WSW 13.8 mph 17.3 mph N/A   Scattered Clouds
4:55 AM 75.2 °F - 68.0 °F 78% 29.90 in 10.0 mi WSW 12.7 mph - N/A   Scattered Clouds
5:15 AM 75.2 °F - 68.0 °F 78% 29.89 in 10.0 mi WSW 13.8 mph - N/A   Clear
5:35 AM 73.4 °F - 68.0 °F 83% 29.89 in 10.0 mi West 10.4 mph 17.3 mph N/A   Clear
5:55 AM 73.4 °F - 66.2 °F 78% 29.89 in 10.0 mi WSW 10.4 mph - N/A   Clear
6:15 AM 73.4 °F - 66.2 °F 78% 29.90 in 10.0 mi West 10.4 mph - N/A   Clear
6:35 AM 73.4 °F - 66.2 °F 78% 29.90 in 10.0 mi West 8.1 mph - N/A   Clear
6:55 AM 73.4 °F - 66.2 °F 78% 29.90 in 10.0 mi WSW 9.2 mph - N/A   Clear
7:15 AM 73.4 °F - 66.2 °F 78% 29.90 in 10.0 mi West 9.2 mph - N/A   Clear
7:35 AM 73.4 °F - 66.2 °F 78% 29.90 in 10.0 mi WSW 10.4 mph - N/A   Clear
7:55 AM 73.4 °F - 66.2 °F 78% 29.90 in 10.0 mi West 9.2 mph - N/A   Clear
8:15 AM 73.4 °F - 66.2 °F 78% 29.90 in 10.0 mi West 9.2 mph - N/A   Clear
8:35 AM 75.2 °F - 66.2 °F 73% 29.91 in 10.0 mi West 9.2 mph - N/A   Clear
8:55 AM 77.0 °F - 66.2 °F 69% 29.91 in 10.0 mi West 12.7 mph - N/A   Clear
9:15 AM 77.0 °F - 66.2 °F 69% 29.91 in 10.0 mi West 10.4 mph - N/A   Clear
9:35 AM 78.8 °F - 68.0 °F 69% 29.91 in 10.0 mi West 10.4 mph - N/A   Clear
9:55 AM 80.6 °F 83.2 °F 68.0 °F 65% 29.92 in 10.0 mi West 11.5 mph - N/A   Clear
10:15 AM 80.6 °F 83.2 °F 68.0 °F 65% 29.92 in 10.0 mi WNW 10.4 mph - N/A   Clear
10:35 AM 82.4 °F 86.3 °F 69.8 °F 66% 29.93 in 10.0 mi WNW 10.4 mph - N/A   Clear
10:55 AM 82.4 °F 86.3 °F 69.8 °F 66% 29.93 in 10.0 mi WNW 11.5 mph - N/A   Clear
11:15 AM 82.4 °F 87.2 °F 71.6 °F 70% 29.93 in 10.0 mi NW 10.4 mph 16.1 mph N/A   Mostly Cloudy
11:35 AM 82.4 °F 87.2 °F 71.6 °F 70% 29.94 in 10.0 mi NNW 9.2 mph - N/A   Mostly Cloudy
11:55 AM 82.4 °F 87.2 °F 71.6 °F 70% 29.94 in 10.0 mi NNW 11.5 mph - N/A   Overcast
12:15 PM 80.6 °F 84.6 °F 71.6 °F 74% 29.95 in 10.0 mi NW 9.2 mph - N/A   Overcast
12:35 PM 80.6 °F 85.4 °F 73.4 °F 79% 29.95 in 10.0 mi NNW 8.1 mph - N/A   Overcast
12:55 PM 82.4 °F 88.2 °F 73.4 °F 74% 29.95 in 10.0 mi NNW 9.2 mph - N/A   Overcast
1:15 PM 82.4 °F 88.2 °F 73.4 °F 74% 29.94 in 10.0 mi NW 8.1 mph - N/A   Overcast
1:35 PM 82.4 °F 88.2 °F 73.4 °F 74% 29.95 in 10.0 mi NW 6.9 mph - N/A   Overcast
1:55 PM 82.4 °F 88.2 °F 73.4 °F 74% 29.95 in 10.0 mi WNW 8.1 mph - N/A   Overcast
2:15 PM 82.4 °F 88.2 °F 73.4 °F 74% 29.95 in 10.0 mi NW 8.1 mph - N/A   Overcast
2:35 PM 82.4 °F 88.2 °F 73.4 °F 74% 29.95 in 10.0 mi NW 5.8 mph - N/A   Overcast
2:55 PM 86.0 °F 93.4 °F 73.4 °F 66% 29.95 in 10.0 mi NNW 5.8 mph - N/A   Mostly Cloudy
3:15 PM 84.2 °F 90.9 °F 73.4 °F 70% 29.95 in 10.0 mi North 8.1 mph - N/A   Mostly Cloudy
3:35 PM 86.0 °F 93.4 °F 73.4 °F 66% 29.95 in 10.0 mi NNE 9.2 mph - N/A   Scattered Clouds
3:55 PM 86.0 °F 91.8 °F 71.6 °F 62% 29.95 in 10.0 mi North 6.9 mph - N/A   Mostly Cloudy
4:15 PM 86.0 °F 91.8 °F 71.6 °F 62% 29.95 in 10.0 mi North 6.9 mph - N/A   Scattered Clouds
4:35 PM 86.0 °F 91.8 °F 71.6 °F 62% 29.95 in 10.0 mi NNW 10.4 mph 17.3 mph N/A   Scattered Clouds
4:55 PM 86.0 °F 90.4 °F 69.8 °F 58% 29.95 in 10.0 mi North 8.1 mph - N/A   Scattered Clouds
5:15 PM 86.0 °F 91.8 °F 71.6 °F 62% 29.95 in 10.0 mi NW 8.1 mph - N/A   Clear
5:35 PM 84.2 °F 89.6 °F 71.6 °F 66% 29.96 in 10.0 mi North 6.9 mph - N/A   Mostly Cloudy
5:55 PM 86.0 °F 91.8 °F 71.6 °F 62% 29.96 in 10.0 mi NNE 10.4 mph - N/A   Mostly Cloudy
6:15 PM 84.2 °F 89.6 °F 71.6 °F 66% 29.96 in 10.0 mi North 8.1 mph - N/A   Scattered Clouds
6:35 PM 82.4 °F 87.2 °F 71.6 °F 70% 29.96 in 10.0 mi NNE 5.8 mph - N/A   Scattered Clouds
6:55 PM 82.4 °F 87.2 °F 71.6 °F 70% 29.97 in 10.0 mi NNE 6.9 mph - N/A   Scattered Clouds
7:15 PM 80.6 °F 84.6 °F 71.6 °F 74% 29.97 in 10.0 mi NE 4.6 mph - N/A   Mostly Cloudy
7:35 PM 80.6 °F 84.6 °F 71.6 °F 74% 29.98 in 10.0 mi NNE 5.8 mph - N/A   Overcast
7:55 PM 78.8 °F - 71.6 °F 78% 29.98 in 10.0 mi NNE 3.5 mph - N/A   Mostly Cloudy
8:15 PM 78.8 °F - 71.6 °F 78% 29.98 in 10.0 mi NNE 5.8 mph - N/A   Mostly Cloudy
8:35 PM 77.0 °F - 69.8 °F 78% 29.99 in 10.0 mi NNE 6.9 mph - N/A   Mostly Cloudy
8:55 PM 77.0 °F - 69.8 °F 78% 30.00 in 10.0 mi NNE 5.8 mph - N/A   Overcast
9:15 PM 77.0 °F - 69.8 °F 78% 30.00 in 10.0 mi NNE 5.8 mph - N/A   Overcast
9:35 PM 77.0 °F - 69.8 °F 78% 30.01 in 10.0 mi NNE 4.6 mph - N/A   Overcast
9:55 PM 75.2 °F - 69.8 °F 83% 30.02 in 10.0 mi NE 4.6 mph - N/A   Overcast
10:15 PM 75.2 °F - 69.8 °F 83% 30.02 in 10.0 mi Calm Calm - N/A   Overcast
10:35 PM 73.4 °F - 69.8 °F 88% 30.03 in 10.0 mi Calm Calm - N/A   Overcast
10:55 PM 73.4 °F - 69.8 °F 88% 30.03 in 10.0 mi NNE 3.5 mph - N/A   Overcast
11:15 PM 73.4 °F - 69.8 °F 88% 30.04 in 10.0 mi North 3.5 mph - N/A   Overcast
11:35 PM 73.4 °F - 69.8 °F 88% 30.04 in 10.0 mi North 3.5 mph - N/A   Overcast
11:55 PM 71.6 °F - 69.8 °F 94% 30.04 in 10.0 mi North 3.5 mph - N/A   Overcast